SP5FLS-15 Weather Reports


Display with metric or nautical units.
time (UTC)temp
F
wind
direction
speed
MPH
gust
MPH
rain 1hr
in
rain 24hr
in
rain mn
in
humidity
%
barometer
mb
20260503040002 47 0.0 0.0 0.00 0.00 0.00 78 1015.8
20260503035501 47 0.0 0.0 0.00 0.00 0.00 77 1015.8
20260503035002 47 0.0 0.0 0.00 0.00 0.00 77 1015.8
20260503034502 46 0.0 0.0 0.00 0.00 0.00 78 1015.8
20260503033502 46 0.0 0.0 0.00 0.00 0.00 76 1016.0
20260503033002 46 0.0 0.0 0.00 0.00 0.00 77 1015.7
20260503032502 46 0.0 0.0 0.00 0.00 0.00 78 1015.9
20260503032001 46 0.0 0.0 0.00 0.00 0.00 76 1015.7
20260503031502 46 0.0 0.0 0.00 0.00 0.00 77 1016.1
20260503031001 46 0.0 0.0 0.00 0.00 0.00 76 1015.9
20260503030502 46 0.0 0.0 0.00 0.00 0.00 77 1015.6
20260503030002 46 0.0 0.0 0.00 0.00 0.00 78 1015.7
20260503025502 46 0.0 0.0 0.00 0.00 0.00 79 1015.6
20260503025002 46 0.0 0.0 0.00 0.00 0.00 80 1015.6
20260503024502 46 0.0 0.0 0.00 0.00 0.00 80 1015.9
20260503024002 46 0.0 0.0 0.00 0.00 0.00 81 1015.7
20260503023502 46 0.0 0.0 0.00 0.00 0.00 83 1015.6
20260503023001 46 0.0 0.0 0.00 0.00 0.00 82 1015.9
20260503022502 46 0.0 0.0 0.00 0.00 0.00 84 1015.6
20260503022001 46 0.0 0.0 0.00 0.00 0.00 82 1016.0
20260503021502 46 0.0 0.0 0.00 0.00 0.00 85 1015.7
20260503021001 46 0.0 0.0 0.00 0.00 0.00 86 1015.7
20260503020502 46 0.0 0.0 0.00 0.00 0.00 85 1015.9
20260503020001 46 0.0 0.0 0.00 0.00 0.00 84 1015.7
20260503015502 47 0.0 0.0 0.00 0.00 0.00 84 1015.3
20260503015001 46 0.0 0.0 0.00 0.00 0.00 84 1015.5
20260503014502 46 0.0 0.0 0.00 0.00 0.00 84 1016.0
20260503014002 47 0.0 0.0 0.00 0.00 0.00 86 1015.8
20260503013502 47 0.0 0.0 0.00 0.00 0.00 86 1016.4
20260503013002 47 0.0 0.0 0.00 0.00 0.00 87 1015.8
20260503012502 46 0.0 0.0 0.00 0.00 0.00 87 1016.2
20260503012002 47 0.0 0.0 0.00 0.00 0.00 88 1016.0
20260503011501 47 0.0 0.0 0.00 0.00 0.00 88 1015.9
20260503011002 47 0.0 0.0 0.00 0.00 0.00 88 1016.1
20260503010501 40 0.0 0.0 0.00 0.00 0.00 44 1015.8
20260503010002 47 0.0 0.0 0.00 0.00 0.00 88 1015.6
20260503005501 47 0.0 0.0 0.00 0.00 0.00 89 1015.8
20260503005002 47 0.0 0.0 0.00 0.00 0.00 91 1016.0
20260503004501 47 0.0 0.0 0.00 0.00 0.00 91 1015.9
20260503004002 47 0.0 0.0 0.00 0.00 0.00 91 1016.0
20260503003501 47 0.0 0.0 0.00 0.00 0.00 92 1015.8
20260503003002 47 0.0 0.0 0.00 0.00 0.00 93 1015.8
20260503002502 47 0.0 0.0 0.00 0.00 0.00 93 1015.5
20260503002001 47 0.0 0.0 0.00 0.00 0.00 94 1016.3
20260503001502 47 0.0 0.0 0.00 0.00 0.00 94 1015.3
20260503001001 47 0.0 0.0 0.00 0.00 0.00 95 1016.1
20260503000502 47 0.0 0.0 0.00 0.00 0.00 96 1015.9
20260503000002 47 0.0 0.0 0.00 0.00 0.00 96 1016.1
20260502235502 47 0.0 0.0 0.00 0.00 0.00 97 1015.7
20260502235002 47 0.0 0.0 0.00 0.00 0.00 99 1015.5
20260502234501 47 0.0 0.0 0.00 0.00 0.00 99 1015.9
20260502234002 47 0.0 0.0 0.00 0.00 0.00 98 1016.1
20260502233501 47 0.0 0.0 0.00 0.00 0.00 99 1016.2
20260502233002 47 0.0 0.0 0.00 0.00 0.00 10 1016.2
20260502232509 48 0.0 0.0 0.00 0.00 0.00 10 1016.3
20260502232002 47 0.0 0.0 0.00 0.00 0.00 10 1016.2
20260502231502 47 0.0 0.0 0.00 0.00 0.00 10 1015.6
20260502231002 48 0.0 0.0 0.00 0.00 0.00 10 1016.2
20260502230502 48 0.0 0.0 0.00 0.00 0.00 10 1016.5
20260502230002 48 0.0 0.0 0.00 0.00 0.00 10 1016.2
20260502225501 48 0.0 0.0 0.00 0.00 0.00 10 1016.2
20260502225002 48 0.0 0.0 0.00 0.00 0.00 10 1016.3
20260502224502 48 0.0 0.0 0.00 0.00 0.00 10 1016.5
20260502224002 48 0.0 0.0 0.00 0.00 0.00 10 1016.3
20260502223502 48 0.0 0.0 0.00 0.00 0.00 10 1016.2
20260502223002 48 0.0 0.0 0.00 0.00 0.00 10 1016.4
20260502222502 49 0.0 0.0 0.00 0.00 0.00 10 1016.3
20260502222001 48 0.0 0.0 0.00 0.00 0.00 10 1016.3
20260502221502 49 0.0 0.0 0.00 0.00 0.00 10 1016.7
20260502221002 49 0.0 0.0 0.00 0.00 0.00 10 1016.3
20260502220502 49 0.0 0.0 0.00 0.00 0.00 10 1016.5
20260502220002 49 0.0 0.0 0.00 0.00 0.00 10 1016.6
20260502215502 49 0.0 0.0 0.00 0.00 0.00 10 1016.6
20260502215002 49 0.0 0.0 0.00 0.00 0.00 10 1016.5
20260502214501 49 0.0 0.0 0.00 0.00 0.00 10 1016.5
20260502214002 49 0.0 0.0 0.00 0.00 0.00 10 1016.2
20260502213501 49 0.0 0.0 0.00 0.00 0.00 10 1016.6
20260502213002 50 0.0 0.0 0.00 0.00 0.00 10 1016.7
20260502212501 49 0.0 0.0 0.00 0.00 0.00 10 1016.5
20260502212002 50 0.0 0.0 0.00 0.00 0.00 10 1016.4
20260502211502 50 0.0 0.0 0.00 0.00 0.00 10 1016.4
20260502211002 50 0.0 0.0 0.00 0.00 0.00 10 1016.6
20260502210502 50 0.0 0.0 0.00 0.00 0.00 10 1016.4
20260502210002 51 0.0 0.0 0.00 0.00 0.00 10 1016.5
20260502205502 51 0.0 0.0 0.00 0.00 0.00 10 1016.5
20260502205002 51 0.0 0.0 0.00 0.00 0.00 10 1016.5
20260502204502 50 0.0 0.0 0.00 0.00 0.00 10 1016.7
20260502204002 51 0.0 0.0 0.00 0.00 0.00 10 1016.6
20260502203502 51 0.0 0.0 0.00 0.00 0.00 10 1016.6
20260502203001 51 0.0 0.0 0.00 0.00 0.00 10 1016.4
20260502202502 52 0.0 0.0 0.00 0.00 0.00 10 1016.6
20260502202003 52 0.0 0.0 0.00 0.00 0.00 10 1016.6
20260502201502 51 0.0 0.0 0.00 0.00 0.00 10 1016.9
20260502201001 52 0.0 0.0 0.00 0.00 0.00 10 1016.7
20260502200502 52 0.0 0.0 0.00 0.00 0.00 10 1016.7
20260502200003 52 0.0 0.0 0.00 0.00 0.00 10 1016.8
20260502195502 53 0.0 0.0 0.00 0.00 0.00 10 1016.7
20260502195002 52 0.0 0.0 0.00 0.00 0.00 10 1016.8
20260502194502 53 0.0 0.0 0.00 0.00 0.00 10 1016.8
20260502194002 53 0.0 0.0 0.00 0.00 0.00 10 1016.6
20260502193502 53 0.0 0.0 0.00 0.00 0.00 10 1016.9
20260502193002 53 0.0 0.0 0.00 0.00 0.00 10 1016.9
20260502192002 53 0.0 0.0 0.00 0.00 0.00 10 1017.1
20260502191502 54 0.0 0.0 0.00 0.00 0.00 10 1017.1
20260502191001 54 0.0 0.0 0.00 0.00 0.00 10 1017.1
20260502190502 54 0.0 0.0 0.00 0.00 0.00 10 1017.0
20260502190002 54 0.0 0.0 0.00 0.00 0.00 10 1017.1
20260502185502 55 0.0 0.0 0.00 0.00 0.00 10 1017.1
20260502185002 55 0.0 0.0 0.00 0.00 0.00 10 1017.0
20260502184501 55 0.0 0.0 0.00 0.00 0.00 10 1016.9
20260502184002 55 0.0 0.0 0.00 0.00 0.00 10 1016.9
20260502183502 56 0.0 0.0 0.00 0.00 0.00 10 1017.0
20260502183002 56 0.0 0.0 0.00 0.00 0.00 10 1017.0
20260502182501 56 0.0 0.0 0.00 0.00 0.00 10 1017.0
20260502182002 57 0.0 0.0 0.00 0.00 0.00 10 1017.0
20260502181502 57 0.0 0.0 0.00 0.00 0.00 10 1016.9
20260502181002 58 0.0 0.0 0.00 0.00 0.00 10 1016.9
20260502180502 58 0.0 0.0 0.00 0.00 0.00 10 1016.9
20260502170502 63 0.0 0.0 0.00 0.00 0.00 10 1016.9
20260502164002 64 0.0 0.0 0.00 0.00 0.00 10 1017.0
20260502163502 65 0.0 0.0 0.00 0.00 0.00 10 1017.1
20260502163001 65 0.0 0.0 0.00 0.00 0.00 10 1017.1
20260502162502 66 0.0 0.0 0.00 0.00 0.00 10 1017.1
20260502162002 67 0.0 0.0 0.00 0.00 0.00 10 1017.2
20260502161502 67 0.0 0.0 0.00 0.00 0.00 10 1017.2
20260502161002 68 0.0 0.0 0.00 0.00 0.00 10 1017.2
20260502160502 67 0.0 0.0 0.00 0.00 0.00 10 1017.3
20260502151502 71 0.0 0.0 0.00 0.00 0.00 10 1017.7
20260502151002 71 0.0 0.0 0.00 0.00 0.00 10 1017.8
20260502150502 71 0.0 0.0 0.00 0.00 0.00 10 1017.9
20260502130502 75 0.0 0.0 0.00 0.00 0.00 10 1018.8
20260502123502 73 0.0 0.0 0.00 0.00 0.00 10 1019.3
20260502123002 73 0.0 0.0 0.00 0.00 0.00 10 1019.4
20260502122502 72 0.0 0.0 0.00 0.00 0.00 10 1019.4
20260502122002 72 0.0 0.0 0.00 0.00 0.00 10 1019.6
20260502121501 72 0.0 0.0 0.00 0.00 0.00 10 1019.5
20260502121002 72 0.0 0.0 0.00 0.00 0.00 10 1019.6
20260502120502 72 0.0 0.0 0.00 0.00 0.00 10 1019.6
20260502115501 72 0.0 0.0 0.00 0.00 0.00 10 1019.9
20260502115002 71 0.0 0.0 0.00 0.00 0.00 10 1019.7
20260502114502 72 0.0 0.0 0.00 0.00 0.00 10 1020.0
20260502114002 71 0.0 0.0 0.00 0.00 0.00 10 1020.0
20260502113502 71 0.0 0.0 0.00 0.00 0.00 10 1020.1
20260502113002 71 0.0 0.0 0.00 0.00 0.00 10 1020.2
20260502112502 71 0.0 0.0 0.00 0.00 0.00 10 1020.1
20260502112002 70 0.0 0.0 0.00 0.00 0.00 10 1020.4
20260502111502 70 0.0 0.0 0.00 0.00 0.00 10 1020.4
20260502111002 71 0.0 0.0 0.00 0.00 0.00 10 1020.4
20260502110501 70 0.0 0.0 0.00 0.00 0.00 10 1020.4
20260502110002 70 0.0 0.0 0.00 0.00 0.00 10 1020.5
20260502105501 69 0.0 0.0 0.00 0.00 0.00 10 1020.7
20260502105002 70 0.0 0.0 0.00 0.00 0.00 10 1020.8
20260502104501 70 0.0 0.0 0.00 0.00 0.00 10 1020.8
20260502104002 70 0.0 0.0 0.00 0.00 0.00 10 1021.0
20260502103501 69 0.0 0.0 0.00 0.00 0.00 10 1020.9
20260502103002 70 0.0 0.0 0.00 0.00 0.00 10 1020.9
20260502102501 69 0.0 0.0 0.00 0.00 0.00 10 1021.0
20260502102002 69 0.0 0.0 0.00 0.00 0.00 10 1020.8
20260502101501 69 0.0 0.0 0.00 0.00 0.00 10 1020.9
20260502101001 69 0.0 0.0 0.00 0.00 0.00 10 1020.9
20260502100502 69 0.0 0.0 0.00 0.00 0.00 10 1020.8
20260502091501 66 0.0 0.0 0.00 0.00 0.00 10 1021.2
20260502091002 65 0.0 0.0 0.00 0.00 0.00 10 1021.5
20260502090502 49 0.0 0.0 0.00 0.00 0.00 10 1021.5
20260502071502 60 0.0 0.0 0.00 0.00 0.00 10 1022.0
20260502071001 60 0.0 0.0 0.00 0.00 0.00 10 1022.0
20260502070502 59 0.0 0.0 0.00 0.00 0.00 10 1021.9
20260502070002 59 0.0 0.0 0.00 0.00 0.00 10 1021.8
20260502065001 59 0.0 0.0 0.00 0.00 0.00 10 1022.0
20260502064502 57 0.0 0.0 0.00 0.00 0.00 10 1022.0
20260502064002 57 0.0 0.0 0.00 0.00 0.00 10 1021.9
20260502063502 57 0.0 0.0 0.00 0.00 0.00 10 1021.8
20260502063002 57 0.0 0.0 0.00 0.00 0.00 10 1021.8
20260502062502 56 0.0 0.0 0.00 0.00 0.00 10 1021.8
20260502062002 56 0.0 0.0 0.00 0.00 0.00 10 1021.9
20260502061501 55 0.0 0.0 0.00 0.00 0.00 10 1022.0
20260502061002 54 0.0 0.0 0.00 0.00 0.00 10 1021.9
20260502060502 53 0.0 0.0 0.00 0.00 0.00 10 1021.9
20260502060002 53 0.0 0.0 0.00 0.00 0.00 97 1021.8
20260502055502 52 0.0 0.0 0.00 0.00 0.00 92 1021.9
20260502055002 52 0.0 0.0 0.00 0.00 0.00 88 1021.8
20260502054502 51 0.0 0.0 0.00 0.00 0.00 85 1021.9
20260502054002 50 0.0 0.0 0.00 0.00 0.00 80 1021.8
20260502053502 50 0.0 0.0 0.00 0.00 0.00 78 1021.8
20260502053002 49 0.0 0.0 0.00 0.00 0.00 73 1021.9
20260502052501 49 0.0 0.0 0.00 0.00 0.00 67 1021.9
20260502052002 48 0.0 0.0 0.00 0.00 0.00 64 1022.0
20260502051501 47 0.0 0.0 0.00 0.00 0.00 59 1021.8
20260502051002 47 0.0 0.0 0.00 0.00 0.00 55 1022.0
20260502050501 46 0.0 0.0 0.00 0.00 0.00 50 1022.1
20260502050002 46 0.0 0.0 0.00 0.00 0.00 48 1022.0
20260502045502 45 0.0 0.0 0.00 0.00 0.00 46 1022.0
20260502045002 44 0.0 0.0 0.00 0.00 0.00 45 1021.8
20260502044502 44 0.0 0.0 0.00 0.00 0.00 44 1021.9
20260502044002 44 0.0 0.0 0.00 0.00 0.00 42 1021.9
20260502043502 43 0.0 0.0 0.00 0.00 0.00 42 1021.9
20260502043002 43 0.0 0.0 0.00 0.00 0.00 41 1021.8
20260502042502 43 0.0 0.0 0.00 0.00 0.00 41 1021.9
20260502042001 42 0.0 0.0 0.00 0.00 0.00 41 1021.7
20260502041502 42 0.0 0.0 0.00 0.00 0.00 40 1021.9
20260502041002 42 0.0 0.0 0.00 0.00 0.00 39 1021.8
20260502040502 42 0.0 0.0 0.00 0.00 0.00 39 1021.7